Wind_Speed
18 20 19 18 17 17 14 11 10 10 10 8 20 27 31 34 35 36 38 40 44 52 60 43 47 45 44 41 36 43 51 47 40 33 30 39 47 48 49 50 50 49 47 43 37
20 20 18 17 15 14 13 10 6 6 6 9 18 28 32 34 35 38 37 39 44 47 51 51 47 43 46 41 39 37 37 41 41 43 47 43 44 50 49 51 50 51 52 52 46
20 19 20 19 14 13 12 10 6 1 4 9 12 16 22 29 35 35 36 38 42 45 48 48 47 47 43 45 42 42 33 32 41 41 41 41 37 40 40 44 45 48 49 47 41
23 19 18 18 17 13 11 9 8 7 6 8 12 15 17 24 30 33 33 36 40 44 45 47 47 47 48 47 45 43 37 37 34 35 37 37 37 41 40 39 43 41 41 41 38
29 24 18 18 16 16 13 11 10 10 12 12 13 16 17 17 23 28 30 32 34 37 40 45 46 47 49 49 49 48 44 42 39 40 41 41 42 40 40 41 44 44 43 44 44
27 27 25 18 18 17 16 12 12 12 13 17 16 16 18 19 18 22 26 27 30 31 34 37 37 39 45 48 51 51 49 49 48 49 49 50 48 46 44 45 45 46 46 47 46
26 25 26 24 18 17 16 15 13 13 14 16 21 22 20 21 20 21 23 25 28 29 30 32 33 36 39 42 48 49 48 50 48 48 49 50 50 50 43 45 44 46 47 47 47
28 25 25 24 20 17 17 17 15 15 16 17 19 22 23 23 24 26 25 26 28 29 31 34 36 37 38 42 44 43 41 41 38 40 42 41 38 37 39 39 41 43 47 48 50
29 26 24 25 21 17 17 12 20 18 17 19 19 21 22 26 29 29 29 31 32 32 33 34 33 34 34 35 36 36 34 35 36 34 35 38 42 41 43 47 47 49 48 51 51
27 27 24 23 24 18 20 20 19 23 21 20 22 21 22 26 28 29 30 30 32 34 35 34 33 33 33 34 33 33 34 33 30 35 39 43 45 44 45 47 45 46 48 50 50
29 26 26 23 24 25 18 22 23 21 26 25 21 23 22 23 24 29 30 32 34 34 34 35 35 34 29 32 34 36 37 36 32 37 40 41 46 46 44 44 43 43 47 47 42
31 26 26 25 23 25 23 19 23 19 19 28 23 22 22 25 25 26 29 32 33 33 33 34 34 30 33 36 35 36 38 38 34 37 42 41 42 44 42 41 42 43 42 40 41
33 27 25 24 23 24 23 21 13 20 23 25 24 30 26 27 27 26 28 27 27 31 34 33 30 35 35 36 36 37 38 37 35 33 40 39 39 37 39 39 41 40 35 31 35
35 30 25 25 24 23 22 18 14 16 25 26 24 26 30 33 29 28 29 29 31 29 29 29 33 34 36 39 40 39 38 38 38 35 36 39 39 37 38 41 41 38 28 29 33
36 32 28 25 24 24 22 19 16 18 23 26 27 24 21 21 25 28 33 31 28 30 35 30 34 35 36 36 37 34 37 38 38 39 40 41 46 41 42 44 39 31 29 33 37
36 31 29 27 23 23 21 20 18 19 23 23 26 26 27 26 26 25 26 30 34 38 36 33 35 38 39 38 40 40 41 43 43 44 44 43 46 44 38 36 36 36 38 37 38
36 31 30 28 25 22 22 20 19 19 19 23 22 25 25 23 22 24 28 29 28 28 27 36 36 36 36 36 37 39 38 39 40 41 41 39 40 42 41 35 38 43 45 41 40
35 31 31 30 25 23 22 20 19 19 15 23 26 25 21 22 23 22 21 24 27 27 27 25 36 42 42 40 36 38 38 40 42 42 42 42 44 44 42 33 38 42 44 45 42
33 31 32 31 26 25 22 20 18 16 17 21 25 25 25 23 24 21 20 21 25 23 16 16 17 18 24 32 38 39 41 41 43 45 45 46 46 44 42 39 41 47 47 45 40
31 31 32 29 28 24 23 18 19 22 26 21 27 24 22 21 22 20 23 22 19 14 13 15 17 19 16 18 19 23 33 39 37 41 37 34 29 25 23 26 31 32 35 38 37
29 30 28 29 28 26 23 20 20 28 23 30 25 23 23 17 19 22 23 19 16 14 14 14 16 16 18 19 21 25 28 29 29 33 36 35 32 27 28 28 28 29 32 34 35
27 25 26 28 29 28 24 23 22 28 31 28 28 32 28 23 22 23 22 21 20 21 19 17 19 18 17 22 23 24 26 28 30 31 31 31 29 29 29 32 34 35 37 38 37
25 23 26 27 29 29 27 30 27 29 32 34 35 29 29 28 25 22 22 25 24 21 22 25 24 21 21 22 25 26 26 27 30 31 32 32 30 28 29 31 33 35 36 36 38
25 27 27 26 27 31 30 31 29 29 35 28 37 29 27 24 24 23 24 24 23 26 30 27 26 24 24 26 26 28 30 31 31 33 33 33 31 28 32 35 34 36 41 41 43
28 29 28 27 27 29 31 30 29 29 32 26 23 25 21 18 20 21 20 20 22 25 26 27 26 25 25 26 29 29 29 29 32 33 35 32 33 33 35 38 36 37 39 41 42
28 25 27 28 25 25 30 31 31 30 30 24 21 19 19 21 22 22 24 25 25 24 25 25 25 25 25 27 27 28 27 30 34 34 37 37 35 36 38 39 38 39 41 43 46
24 24 27 27 28 27 28 33 35 36 29 22 20 19 21 22 24 25 24 24 23 23 23 24 25 26 22 23 23 23 24 27 29 33 36 39 41 41 43 45 46 46 47 47 49
Wind_Direction
322 320 310 312 317 319 323 339 353 325 309 209 167 175 178 188 196 199 201 206 208 213 221 211 210 222 225 221 217 218 212 210 209 207 210 216 221 221 225 228 236 241 244 247 245
318 320 303 309 311 313 318 319 349 341 275 232 192 184 188 194 199 201 206 201 204 210 219 226 218 215 227 232 226 220 219 213 210 211 208 216 216 221 226 234 235 239 242 244 247
314 313 319 301 307 305 303 305 292 258 266 239 227 209 200 200 202 204 198 200 201 206 213 220 225 228 225 231 233 227 222 227 223 220 224 228 225 227 232 239 241 246 251 258 259
325 309 306 310 299 299 295 284 271 233 208 218 218 222 215 207 205 205 204 202 202 204 209 212 219 220 227 232 236 239 235 234 235 232 235 232 236 232 234 241 248 252 258 263 265
335 326 309 301 304 291 285 278 258 245 216 203 211 210 212 210 210 211 207 205 205 207 210 211 215 219 223 228 230 232 232 236 238 240 241 246 243 238 236 243 251 257 260 265 269
334 332 324 303 292 292 276 268 264 240 232 215 204 215 208 207 208 212 213 210 210 206 209 213 215 218 221 223 227 231 231 231 232 237 240 240 242 245 244 246 253 258 263 267 269
334 332 325 320 296 285 292 254 252 250 229 226 219 206 211 207 201 202 207 206 208 206 208 212 211 214 217 220 224 228 229 232 232 236 241 242 242 247 247 247 249 257 258 259 261
328 330 324 318 309 272 275 255 244 244 240 223 223 221 214 210 209 203 200 204 204 204 204 207 209 212 216 220 224 228 228 233 231 233 237 241 243 245 247 243 238 239 246 251 255
321 323 320 318 317 285 258 265 242 238 237 231 224 220 215 218 219 213 210 207 208 210 212 213 216 214 218 224 229 231 230 232 232 234 237 240 238 234 237 235 235 237 241 246 250
316 317 315 318 316 301 260 252 256 243 239 231 228 223 213 215 221 224 224 222 223 220 219 220 221 221 221 224 230 238 239 235 232 235 231 233 239 238 238 242 240 239 239 242 247
311 310 310 309 308 305 291 253 254 250 233 234 225 227 220 215 217 219 220 223 226 229 229 229 228 227 236 236 233 235 235 233 230 238 236 234 240 243 240 244 241 242 243 243 247
306 302 302 302 300 296 294 278 257 252 246 225 226 221 220 222 219 222 217 218 225 228 230 233 234 231 233 236 237 239 241 241 237 243 244 243 241 246 248 250 252 252 255 260 256
301 296 291 294 294 291 290 290 273 240 241 246 239 223 215 220 220 220 226 222 219 221 226 231 230 231 233 236 237 239 242 245 245 239 253 253 253 255 260 259 258 259 263 262 260
298 290 282 284 286 285 286 281 268 243 235 241 241 227 222 219 218 220 220 224 226 226 229 223 224 227 232 235 236 238 242 245 248 244 249 254 253 251 254 260 264 269 256 244 250
292 286 278 272 279 279 277 272 260 240 234 229 230 229 232 219 208 216 225 224 223 224 229 229 234 232 233 233 238 238 239 241 242 243 241 241 249 249 250 257 263 257 252 248 254
287 280 272 269 267 272 268 265 257 242 233 232 226 223 224 226 229 223 225 223 223 227 229 222 227 234 237 240 245 245 244 246 246 248 249 249 252 256 253 251 254 257 255 255 259
283 273 264 262 262 262 262 259 255 247 230 227 225 220 220 216 221 221 219 227 232 235 239 229 231 233 236 238 243 247 249 251 250 251 254 254 252 254 252 252 252 250 256 265 267
278 267 259 257 256 255 256 253 247 238 227 210 212 208 210 219 217 213 210 214 220 227 232 231 228 235 239 240 238 242 243 245 250 252 253 252 253 256 261 259 258 258 260 260 261
274 264 253 249 249 248 248 248 242 218 206 205 206 204 209 199 198 209 204 212 215 219 214 219 226 235 240 243 238 241 246 249 251 254 257 260 262 265 264 264 261 263 264 266 264
268 260 251 244 242 241 239 237 231 208 198 189 193 210 216 200 205 200 215 218 217 218 211 210 221 231 221 230 236 239 244 248 254 259 263 266 266 265 254 259 258 255 260 266 266
263 259 252 239 237 236 232 227 228 211 212 219 212 218 228 225 215 212 221 230 214 214 216 220 226 236 243 240 240 237 244 248 253 258 264 269 269 268 263 256 257 263 265 263 263
259 258 250 239 231 231 224 223 225 216 212 229 217 208 217 232 244 246 243 240 235 238 242 244 241 244 245 257 254 251 253 258 261 265 268 271 271 274 269 267 263 261 264 266 269
251 247 246 237 230 225 216 223 224 221 226 224 228 236 232 241 242 231 235 237 240 250 258 262 256 259 255 248 253 260 262 264 266 266 267 272 283 283 275 267 264 267 266 263 255
241 240 236 241 230 226 223 223 225 225 231 238 226 226 223 226 229 234 236 242 245 243 254 261 264 261 259 261 259 259 264 266 268 271 275 274 275 275 268 265 262 260 260 263 267
233 232 234 232 229 229 226 224 226 230 239 240 234 204 215 221 231 235 236 238 237 236 242 249 255 258 258 260 262 264 268 270 268 267 269 271 273 270 262 265 268 268 268 267 265
235 233 226 229 228 225 224 224 229 229 239 238 198 205 216 220 228 235 236 234 237 242 246 253 258 262 263 262 261 262 262 264 271 275 274 275 273 277 273 272 272 268 266 266 268
229 228 225 227 220 221 215 220 225 227 225 223 196 223 223 223 230 234 240 245 244 244 247 251 257 257 256 263 265 266 265 267 269 271 273 274 274 275 274 274 273 272 269 267 265
Height
5748 5744 5741 5738 5734 5730 5725 5722 5719 5718 5716 5714 5716 5721 5727 5735 5742 5749 5757 5762 5770 5774 5779 5786 5793 5800 5805 5811 5818 5823 5830 5839 5844 5847 5852 5851 5853 5855 5856 5860 5862 5866 5868 5872 5875
5747 5742 5737 5734 5731 5729 5726 5723 5720 5720 5721 5721 5720 5724 5728 5734 5740 5748 5751 5758 5765 5772 5777 5783 5786 5794 5801 5805 5810 5817 5828 5836 5836 5837 5839 5842 5847 5851 5853 5853 5858 5859 5860 5864 5871
5744 5741 5736 5733 5729 5727 5725 5723 5722 5721 5722 5724 5725 5726 5729 5733 5740 5745 5749 5755 5762 5768 5772 5777 5783 5791 5797 5802 5807 5815 5825 5828 5826 5831 5837 5839 5846 5847 5850 5849 5852 5855 5857 5859 5864
5739 5736 5734 5730 5728 5725 5724 5722 5722 5721 5722 5724 5726 5729 5731 5734 5740 5742 5747 5752 5758 5763 5770 5775 5781 5786 5794 5799 5803 5809 5819 5820 5823 5827 5830 5835 5840 5843 5845 5848 5846 5850 5853 5855 5856
5738 5734 5730 5729 5725 5724 5722 5721 5721 5721 5721 5723 5726 5728 5731 5733 5737 5741 5746 5750 5755 5761 5766 5771 5777 5783 5788 5793 5797 5802 5811 5815 5818 5820 5824 5825 5830 5837 5841 5844 5843 5844 5848 5850 5852
5735 5730 5728 5725 5723 5720 5720 5719 5719 5719 5720 5722 5723 5726 5729 5732 5736 5739 5744 5748 5753 5758 5762 5768 5773 5776 5781 5787 5791 5796 5802 5807 5810 5814 5817 5818 5823 5827 5835 5838 5839 5841 5842 5841 5843
5732 5728 5723 5721 5720 5718 5716 5716 5716 5717 5718 5719 5721 5723 5727 5730 5733 5737 5741 5745 5750 5754 5759 5762 5766 5771 5776 5781 5784 5788 5795 5799 5804 5808 5812 5813 5818 5821 5830 5832 5836 5835 5834 5834 5836
5728 5725 5721 5717 5714 5714 5714 5713 5713 5714 5715 5715 5717 5720 5723 5727 5730 5734 5737 5742 5746 5750 5753 5755 5760 5764 5770 5774 5777 5783 5790 5795 5800 5802 5804 5809 5818 5820 5821 5823 5824 5825 5824 5825 5826
5725 5721 5718 5714 5711 5709 5708 5708 5709 5709 5711 5712 5713 5717 5721 5724 5726 5729 5734 5737 5741 5745 5748 5751 5757 5762 5766 5770 5774 5778 5784 5788 5792 5797 5799 5801 5803 5809 5808 5808 5811 5813 5817 5817 5818
5720 5717 5715 5712 5708 5705 5703 5704 5704 5704 5706 5708 5709 5714 5717 5717 5721 5725 5729 5734 5738 5741 5744 5748 5753 5758 5762 5766 5771 5774 5778 5782 5787 5787 5789 5790 5792 5796 5799 5801 5805 5808 5809 5810 5812
5715 5712 5710 5708 5704 5701 5700 5698 5701 5701 5701 5704 5705 5707 5711 5714 5715 5719 5724 5728 5732 5736 5741 5744 5748 5753 5759 5761 5764 5764 5767 5772 5778 5778 5781 5784 5784 5788 5791 5794 5798 5800 5801 5801 5805
5709 5706 5703 5702 5700 5696 5694 5693 5694 5698 5697 5697 5699 5702 5705 5708 5712 5713 5718 5723 5727 5732 5735 5740 5743 5749 5750 5752 5756 5759 5761 5765 5772 5771 5772 5776 5780 5781 5785 5788 5790 5792 5795 5799 5797
5700 5698 5696 5694 5693 5691 5688 5689 5689 5691 5691 5691 5692 5696 5700 5702 5704 5709 5713 5717 5720 5724 5728 5733 5738 5739 5742 5746 5749 5752 5755 5759 5764 5766 5765 5769 5773 5777 5778 5781 5782 5786 5789 5789 5788
5695 5692 5688 5689 5687 5685 5684 5683 5684 5683 5684 5686 5688 5688 5695 5694 5699 5702 5706 5711 5714 5719 5721 5726 5728 5731 5735 5738 5740 5744 5748 5751 5755 5759 5760 5761 5765 5768 5770 5770 5773 5778 5779 5779 5776
5687 5685 5683 5678 5680 5678 5679 5677 5677 5677 5678 5680 5680 5683 5686 5689 5691 5696 5699 5703 5709 5712 5714 5724 5723 5725 5728 5732 5735 5740 5741 5744 5746 5749 5751 5753 5753 5760 5762 5763 5766 5767 5768 5768 5769
5677 5676 5675 5674 5671 5672 5671 5671 5671 5672 5671 5673 5676 5678 5682 5685 5687 5691 5693 5697 5699 5702 5707 5714 5716 5718 5722 5727 5728 5732 5735 5736 5739 5741 5743 5747 5748 5749 5754 5757 5758 5757 5757 5759 5759
5667 5666 5665 5664 5665 5663 5663 5664 5665 5664 5666 5668 5670 5672 5675 5679 5682 5685 5688 5692 5694 5698 5702 5706 5708 5712 5715 5719 5721 5723 5727 5729 5731 5732 5735 5738 5740 5740 5744 5749 5748 5747 5747 5750 5752
5655 5655 5655 5655 5657 5656 5656 5657 5658 5658 5660 5661 5664 5667 5671 5674 5676 5679 5682 5686 5688 5691 5695 5697 5701 5704 5708 5711 5714 5714 5718 5720 5721 5724 5727 5729 5729 5732 5735 5741 5739 5737 5739 5740 5743
5642 5644 5644 5646 5647 5648 5650 5650 5652 5654 5656 5657 5660 5663 5665 5668 5671 5674 5678 5682 5684 5688 5693 5694 5695 5697 5700 5703 5707 5709 5710 5713 5713 5714 5716 5719 5721 5723 5724 5728 5729 5726 5725 5727 5733
5632 5632 5632 5637 5638 5640 5642 5644 5646 5649 5652 5652 5654 5658 5662 5665 5668 5671 5673 5676 5680 5684 5687 5690 5692 5693 5696 5697 5699 5701 5704 5705 5704 5704 5704 5706 5711 5713 5717 5716 5715 5715 5717 5717 5719
5620 5620 5623 5626 5629 5632 5635 5637 5641 5644 5647 5651 5651 5655 5658 5661 5666 5669 5670 5675 5679 5681 5684 5686 5688 5690 5691 5692 5693 5695 5695 5697 5698 5698 5697 5699 5704 5707 5707 5708 5710 5710 5710 5710 5710
5610 5612 5613 5616 5621 5624 5627 5631 5634 5638 5641 5641 5646 5648 5653 5658 5660 5663 5665 5669 5673 5675 5678 5681 5682 5684 5687 5685 5687 5688 5689 5690 5690 5691 5691 5691 5694 5697 5698 5698 5700 5701 5700 5701 5700
5601 5603 5605 5606 5611 5616 5619 5623 5627 5632 5634 5637 5640 5641 5646 5650 5654 5656 5658 5661 5665 5669 5670 5674 5675 5677 5678 5681 5680 5680 5682 5682 5682 5682 5682 5683 5688 5688 5689 5689 5690 5689 5688 5688 5689
5592 5594 5597 5598 5603 5607 5611 5616 5620 5625 5626 5630 5635 5639 5641 5643 5648 5651 5654 5657 5660 5662 5663 5665 5666 5669 5670 5670 5673 5673 5673 5674 5675 5676 5677 5677 5678 5680 5677 5677 5680 5678 5677 5678 5677
5581 5584 5588 5590 5595 5600 5605 5611 5614 5618 5620 5623 5628 5633 5637 5640 5642 5645 5648 5652 5654 5656 5658 5660 5660 5662 5663 5663 5663 5664 5665 5666 5666 5666 5667 5670 5669 5669 5668 5667 5670 5671 5670 5669 5669
5571 5576 5580 5584 5588 5593 5598 5605 5607 5611 5616 5619 5622 5628 5632 5635 5638 5639 5640 5643 5646 5649 5650 5652 5653 5654 5655 5656 5657 5659 5659 5658 5656 5657 5657 5658 5660 5656 5656 5656 5658 5659 5659 5658 5657
5562 5567 5572 5577 5580 5586 5591 5596 5600 5605 5609 5612 5616 5622 5626 5628 5631 5633 5635 5637 5641 5643 5644 5646 5646 5647 5649 5649 5649 5651 5652 5651 5652 5651 5651 5650 5649 5647 5646 5645 5644 5645 5645 5645 5644